User: anonymous   Login
Location: Unspecified
(0.0000°N, 0.0000°E)
Time: 03:43:42
(UTC+00:00)
Language:

SR 7A - Orbit

View from above orbital plane
View from above orbital plane
View from above satellite
View from above satellite

Ground track
Ground track

The orbit data is extracted from the following two-line orbital elements,

1 00730U 64001D   18115.66222300 -.00000034  00000-0  14599-4 0  9998
2 00730  69.9061 181.6632 0016559 255.1980 265.3990 13.95593890646165
Epoch (UTC): 25 April 2018 15:53:36
Eccentricity: 0.0016559
inclination: 69.9061°
perigee height: 897 km
apogee height: 921 km
right ascension of ascending node: 181.6632°
argument of perigee: 255.1980°
revolutions per day: 13.95593890
mean anomaly at epoch: 265.3990°
orbit number at epoch: 64616

The dashed part of the orbit path shows where the satellite is in the earth's shadow,  

DLR